This is the latest recevied weather packets stored in our database for station/object ES0THZ-13. If no packets are shown the sender has not sent any weather packets the latest 10 day(s).
| Time | Temp. | Humidity | Pressure | Rain* | Wind** | Luminosity | Snow |
|---|---|---|---|---|---|---|---|
| 1788355026 | 24.44° C | 76% | 1004.9 hPa | - | - | - | - |
| 1788353891 | 23.89° C | 77% | 1004.5 hPa | - | - | - | - |
| 1788352751 | 26.11° C | 75% | 1005.4 hPa | - | - | - | - |
| 1788351759 | 25.56° C | 76% | 1004.3 hPa | - | - | - | - |
| 1788350726 | 25.56° C | 77% | 1004.6 hPa | - | - | - | - |
| 1788349622 | 25.56° C | 77% | 1004.9 hPa | - | - | - | - |
| 1788348461 | 24.44° C | 78% | 1003.7 hPa | - | - | - | - |
| 1788347466 | 25.56° C | 78% | 1004.7 hPa | - | - | - | - |
| 1788346311 | 25° C | 79% | 1004.9 hPa | - | - | - | - |
| 1788345181 | 24.44° C | 81% | 1004.7 hPa | - | - | - | - |
| 1788344199 | 24.44° C | 82% | 1004.3 hPa | - | - | - | - |
| 1788343160 | 23.89° C | 83% | 1004.8 hPa | - | - | - | - |
| 1788342126 | 22.78° C | 84% | 1004.9 hPa | - | - | - | - |
| 1788341091 | 22.78° C | 86% | 1004.8 hPa | - | - | - | - |
| 1788339931 | 22.78° C | 86% | 1003.3 hPa | - | - | - | - |
| 1788338906 | 22.78° C | 87% | 1004.7 hPa | - | - | - | - |
| 1788337786 | 21.11° C | 89% | 1003.9 hPa | - | - | - | - |
| 1788336706 | 20° C | 90% | 1004.5 hPa | - | - | - | - |
| 1788335666 | 19.44° C | 90% | 1004.4 hPa | - | - | - | - |
| 1788334631 | 18.89° C | 91% | 1004.9 hPa | - | - | - | - |
| 1788333516 | 20° C | 90% | 1004.4 hPa | - | - | - | - |
| 1788332446 | 19.44° C | 90% | 1003.6 hPa | - | - | - | - |
| 1788331391 | 20° C | 90% | 1003.3 hPa | - | - | - | - |
| 1788330401 | 18.89° C | 91% | 1003.8 hPa | - | - | - | - |
| 1788329311 | 17.78° C | 91% | 1003.3 hPa | - | - | - | - |
* Rain since midnight (hover to see other rain measurements)
** Current wind speed in m/s (hover to see current wind gust speed)